When you browse on this site, cookies collect data to enhance your experience and personalize the content and advertising you see.
Visit our Privacy Policy to learn more. By continuing to use the site, you agree to this use of cookies and data.
  • In Hungary
  • List of Countries
  • For 7 days
  • Water Temperature
  • Weather Map
  • News
  • Weather Widgets
  • user-avatar
    Login

    Hourly Weather Abomey

    Today, 19 November, Tuesday

    Time Temperature Precipitation Wind Pressure Humidity
    00:00 +26°C° 0 mm 2 mps 738 mmHg 90%
    01:00 +26°C° 0 mm 2 mps 737 mmHg 91%
    02:00 +25°C° 0 mm 2 mps 737 mmHg 92%
    03:00 +25°C° 0 mm 2 mps 736 mmHg 94%
    04:00 +25°C° 0 mm 1 mps 737 mmHg 94%
    05:00 +25°C° 0 mm 1 mps 737 mmHg 95%
    06:00 +25°C° 0 mm 1 mps 738 mmHg 96%
    07:00 +26°C° 0 mm 1 mps 738 mmHg 88%
    08:00 +28°C° 0 mm 2 mps 738 mmHg 80%
    09:00 +30°C° 0 mm 2 mps 739 mmHg 72%
    10:00 +31°C° 0 mm 2 mps 738 mmHg 65%
    11:00 +34°C° 0 mm 2 mps 738 mmHg 59%
    12:00 +34°C° 0 mm 1 mps 738 mmHg 52%
    13:00 +34°C° 0 mm 1 mps 737 mmHg 50%
    14:00 +35°C° 0 mm 1 mps 737 mmHg 48%
    15:00 +35°C° 0 mm 1 mps 736 mmHg 45%
    16:00 +33°C° 0.1 mm 1 mps 736 mmHg 56%
    17:00 +31°C° 0.1 mm 2 mps 736 mmHg 66%
    18:00 +28°C° 0.1 mm 2 mps 736 mmHg 76%
    19:00 +28°C° 0 mm 2 mps 737 mmHg 80%
    20:00 +27°C° 0 mm 2 mps 737 mmHg 83%
    21:00 +27°C° 0 mm 2 mps 738 mmHg 86%
    22:00 +26°C° 0 mm 2 mps 738 mmHg 87%
    23:00 +26°C° 0 mm 2 mps 738 mmHg 88%

    Tomorrow, 20 November, Wednesday

    Time Temperature Precipitation Wind Pressure Humidity
    00:00 +26°C° 0 mm 2 mps 737 mmHg 90%
    01:00 +26°C° 0 mm 2 mps 737 mmHg 91%
    02:00 +25°C° 0 mm 2 mps 737 mmHg 92%
    03:00 +25°C° 0 mm 2 mps 736 mmHg 94%
    04:00 +25°C° 0 mm 1 mps 737 mmHg 95%
    05:00 +25°C° 0 mm 1 mps 737 mmHg 96%
    06:00 +25°C° 0 mm 1 mps 737 mmHg 96%
    07:00 +26°C° 0 mm 1 mps 738 mmHg 89%
    08:00 +28°C° 0 mm 2 mps 738 mmHg 81%
    09:00 +30°C° 0 mm 2 mps 739 mmHg 73%
    10:00 +31°C° 0 mm 2 mps 739 mmHg 68%
    11:00 +32°C° 0 mm 2 mps 738 mmHg 63%
    12:00 +34°C° 0 mm 2 mps 738 mmHg 58%
    13:00 +35°C° 0 mm 2 mps 737 mmHg 56%
    14:00 +35°C° 0 mm 2 mps 737 mmHg 54%
    15:00 +34°C° 0 mm 1 mps 736 mmHg 52%
    16:00 +34°C° 0.1 mm 2 mps 736 mmHg 59%
    17:00 +31°C° 0.1 mm 2 mps 736 mmHg 66%
    18:00 +29°C° 0.1 mm 2 mps 736 mmHg 72%
    19:00 +28°C° 0.4 mm 2 mps 737 mmHg 78%
    20:00 +27°C° 0.4 mm 3 mps 737 mmHg 83%
    21:00 +26°C° 0.4 mm 3 mps 738 mmHg 89%
    22:00 +26°C° 0 mm 3 mps 738 mmHg 90%
    23:00 +26°C° 0 mm 2 mps 738 mmHg 91%

    Day after tomorrow, 21 November, Thursday

    Time Temperature Precipitation Wind Pressure Humidity
    00:00 +26°C° 0 mm 2 mps 737 mmHg 92%
    01:00 +25°C° 0 mm 2 mps 737 mmHg 93%
    02:00 +25°C° 0 mm 2 mps 737 mmHg 94%
    03:00 +25°C° 0 mm 2 mps 736 mmHg 95%
    04:00 +25°C° 0 mm 2 mps 737 mmHg 95%
    05:00 +25°C° 0 mm 1 mps 737 mmHg 96%
    06:00 +24°C° 0 mm 1 mps 737 mmHg 96%
    07:00 +26°C° 0 mm 2 mps 738 mmHg 90%
    08:00 +28°C° 0 mm 2 mps 738 mmHg 83%
    09:00 +29°C° 0 mm 2 mps 739 mmHg 77%
    10:00 +30°C° 0 mm 2 mps 738 mmHg 74%
    11:00 +31°C° 0 mm 2 mps 738 mmHg 71%
    12:00 +31°C° 0 mm 2 mps 737 mmHg 68%
    13:00 +32°C° 0 mm 2 mps 737 mmHg 67%
    14:00 +33°C° 0 mm 3 mps 736 mmHg 65%
    15:00 +33°C° 0 mm 3 mps 736 mmHg 64%
    16:00 +31°C° 0 mm 2 mps 736 mmHg 69%
    17:00 +30°C° 0 mm 2 mps 736 mmHg 74%
    18:00 +28°C° 0 mm 2 mps 736 mmHg 80%
    19:00 +28°C° 0.2 mm 3 mps 737 mmHg 82%
    20:00 +27°C° 0.2 mm 3 mps 738 mmHg 84%
    21:00 +26°C° 0.2 mm 3 mps 738 mmHg 86%
    22:00 +26°C° 0.4 mm 3 mps 738 mmHg 87%
    23:00 +26°C° 0.4 mm 3 mps 738 mmHg 89%

    22 November, Friday

    Time Temperature Precipitation Wind Pressure Humidity
    00:00 +26°C° 0.4 mm 2 mps 738 mmHg 91%
    01:00 +26°C° 0.2 mm 3 mps 737 mmHg 91%
    02:00 +26°C° 0.2 mm 3 mps 737 mmHg 90%
    03:00 +26°C° 0.2 mm 4 mps 737 mmHg 90%
    04:00 +25°C° 0 mm 3 mps 737 mmHg 90%
    05:00 +25°C° 0 mm 3 mps 737 mmHg 91%
    06:00 +25°C° 0 mm 2 mps 737 mmHg 92%
    07:00 +26°C° 0 mm 2 mps 738 mmHg 85%
    08:00 +28°C° 0 mm 1 mps 738 mmHg 78%
    09:00 +29°C° 0 mm 1 mps 739 mmHg 71%
    10:00 +31°C° 0 mm 1 mps 738 mmHg 65%
    11:00 +32°C° 0 mm 1 mps 738 mmHg 59%
    12:00 +33°C° 0 mm 1 mps 737 mmHg 53%
    13:00 +34°C° 0 mm 2 mps 737 mmHg 53%
    14:00 +34°C° 0 mm 2 mps 737 mmHg 54%
    15:00 +34°C° 0 mm 2 mps 736 mmHg 54%
    16:00 +32°C° 0.1 mm 2 mps 736 mmHg 61%
    17:00 +30°C° 0.1 mm 3 mps 737 mmHg 69%
    18:00 +28°C° 0.1 mm 3 mps 737 mmHg 76%
    19:00 +27°C° 0.3 mm 3 mps 737 mmHg 81%
    20:00 +26°C° 0.3 mm 2 mps 738 mmHg 85%
    21:00 +26°C° 0.3 mm 2 mps 739 mmHg 89%
    22:00 +26°C° 0.1 mm 2 mps 739 mmHg 90%
    23:00 +26°C° 0.1 mm 2 mps 739 mmHg 90%

    23 November, Saturday

    Time Temperature Precipitation Wind Pressure Humidity
    00:00 +25°C° 0.1 mm 2 mps 739 mmHg 91%
    01:00 +25°C° 0 mm 2 mps 738 mmHg 92%
    02:00 +25°C° 0 mm 2 mps 738 mmHg 93%
    03:00 +25°C° 0 mm 2 mps 738 mmHg 94%
    04:00 +25°C° 0 mm 1 mps 738 mmHg 94%
    05:00 +25°C° 0 mm 1 mps 738 mmHg 95%
    06:00 +25°C° 0 mm 1 mps 738 mmHg 96%
    07:00 +26°C° 0 mm 2 mps 738 mmHg 89%
    08:00 +28°C° 0 mm 2 mps 739 mmHg 83%
    09:00 +29°C° 0 mm 2 mps 739 mmHg 76%
    10:00 +30°C° 0 mm 2 mps 739 mmHg 72%
    11:00 +31°C° 0 mm 2 mps 738 mmHg 68%
    12:00 +32°C° 0 mm 2 mps 738 mmHg 64%
    13:00 +32°C° 0.1 mm 2 mps 737 mmHg 65%
    14:00 +32°C° 0.1 mm 2 mps 737 mmHg 65%
    15:00 +31°C° 0.1 mm 2 mps 736 mmHg 66%
    16:00 +30°C° 0.7 mm 2 mps 736 mmHg 72%
    17:00 +29°C° 0.7 mm 2 mps 736 mmHg 79%
    18:00 +27°C° 0.7 mm 2 mps 737 mmHg 85%
    19:00 +27°C° 0.4 mm 2 mps 737 mmHg 87%
    20:00 +27°C° 0.4 mm 2 mps 738 mmHg 89%
    21:00 +26°C° 0.4 mm 3 mps 738 mmHg 91%
    22:00 +26°C° 0 mm 2 mps 738 mmHg 91%
    23:00 +26°C° 0 mm 2 mps 738 mmHg 92%

    24 November, Sunday

    Time Temperature Precipitation Wind Pressure Humidity
    00:00 +25°C° 0 mm 2 mps 738 mmHg 93%
    01:00 +25°C° 0 mm 2 mps 737 mmHg 94%
    02:00 +25°C° 0 mm 1 mps 737 mmHg 95%
    03:00 +25°C° 0 mm 1 mps 737 mmHg 95%
    04:00 +25°C° 0 mm 1 mps 737 mmHg 96%
    05:00 +24°C° 0 mm 1 mps 737 mmHg 96%
    06:00 +24°C° 0 mm 1 mps 738 mmHg 96%
    07:00 +26°C° 0 mm 1 mps 738 mmHg 90%
    08:00 +27°C° 0 mm 1 mps 739 mmHg 83%
    09:00 +29°C° 0 mm 2 mps 739 mmHg 76%
    10:00 +30°C° 0 mm 2 mps 739 mmHg 73%
    11:00 +30°C° 0 mm 2 mps 738 mmHg 70%
    12:00 +31°C° 0 mm 2 mps 738 mmHg 67%
    13:00 +31°C° 0 mm 2 mps 737 mmHg 67%
    14:00 +31°C° 0 mm 1 mps 737 mmHg 66%
    15:00 +31°C° 0 mm 1 mps 736 mmHg 65%
    16:00 +30°C° 0.2 mm 1 mps 737 mmHg 71%
    17:00 +29°C° 0.2 mm 1 mps 737 mmHg 76%
    18:00 +28°C° 0.2 mm 2 mps 737 mmHg 82%
    19:00 +27°C° 0 mm 2 mps 738 mmHg 84%
    20:00 +27°C° 0 mm 2 mps 738 mmHg 86%
    21:00 +26°C° 0 mm 3 mps 739 mmHg 88%
    22:00 +26°C° 0 mm 2 mps 738 mmHg 89%
    23:00 +25°C° 0 mm 2 mps 738 mmHg 91%
    Show more